Starlink 6099

operational
NORAD ID: 57108 Int'l Des: 2023-090 Owner: SPXS Country: US Constellation: starlink
LEOCIRCULAR

About Starlink 6099

Description loading...

Live Position

Loading 3D Globe...

Upcoming Passes

Altitude History

Altitude vs Time

uPlot chart will show altitude changes over time

Two-Line Element Set

1 57108U 23090H 25303.87971484 -.00000160 00000-0 32366-5 0 9999
2 57108 43.0020 260.2501 0000847 260.4643 99.6104 15.02535424130882
Epoch: Oct 30, 2025 • Age: 9 hours

Current Status

Altitude 559.9 km
Velocity 7.58 km/s
Sub-Earth Point -7.39°S, 42.62°W
Launch Date Jun 23, 2023
Age 2.3 years
Type internet

Technical Details

Classification Payload
Mass 305.00 kg
Dry Mass 290.00 kg
Total Mass 305.00 kg
Length 0.20 m
Diameter 2.80 m
Span 9.00 m
Shape Box + pan
Manufacturer SPXS
Bus Type Starlink
Phase Status In Orbit
Owner/State SPXS/US

Large Constellations

Loading constellations...